DW4691 Weather Reports


time (UTC)temp
C
wind
direction
speed
KPH
gust
KPH
rain 1hr
cm
rain 24hr
cm
rain mn
cm
humidity
%
barometer
mb
20260507210053 25 69 0.0 8.0 0.00 0.00 0.00 68 1014.0
20260507204600 25 0 0.0 4.8 0.00 0.00 0.00 71 1014.1
20260507203056 25 132 0.0 0.0 0.00 0.00 0.00 70 1014.2
20260507201555 25 0 0.0 8.0 0.00 0.00 0.00 69 1014.2
20260507200051 25 0 0.0 6.4 0.00 0.00 0.00 69 1014.4
20260507194549 24 0 0.0 1.6 0.00 0.00 0.00 69 1014.8
20260507193052 24 0 0.0 9.7 0.00 0.00 0.00 69 1014.5
20260507191552 23 17 0.0 3.2 0.00 0.00 0.00 70 1015.0
20260507190056 23 0 0.0 3.2 0.00 0.00 0.00 71 1015.4
20260507184551 23 0 0.0 4.8 0.00 0.05 0.00 72 1015.5
20260507183059 23 151 0.0 8.0 0.00 0.05 0.00 74 1015.6
20260507181549 22 0 0.0 4.8 0.00 0.05 0.00 74 1015.8
20260507180053 22 0 0.0 4.8 0.00 0.05 0.00 74 1015.9
20260507174555 21 54 0.0 4.8 0.00 0.18 0.00 75 1016.2
20260507173051 21 0 0.0 4.8 0.00 0.18 0.00 79 1016.7
20260507171544 20 0 0.0 4.8 0.00 0.18 0.00 78 1016.8
20260507170043 20 0 0.0 3.2 0.00 0.18 0.00 77 1016.6
20260507164541 20 0 0.0 6.4 0.00 0.18 0.00 77 1016.6
20260507163048 20 118 0.0 3.2 0.00 0.18 0.00 78 1016.4
20260507161545 19 0 0.0 6.4 0.00 0.18 0.00 82 1016.2
20260507160051 18 0 0.0 4.8 0.00 0.18 0.00 81 1015.9
20260507154544 18 0 0.0 6.4 0.00 0.18 0.00 81 1016.0
20260507153049 18 36 0.0 3.2 0.00 0.18 0.00 84 1016.3
20260507151549 17 0 0.0 6.4 0.00 0.18 0.00 84 1016.3
20260507150055 17 0 0.0 3.2 0.00 0.18 0.00 85 1016.1
20260507144552 17 0 0.0 3.2 0.00 0.18 0.00 86 1015.9
20260507143112 17 0 0.0 6.4 0.00 0.18 0.00 86 1016.2
20260507141554 17 175 0.0 8.0 0.00 0.18 0.00 86 1016.0
20260507140108 17 0 0.0 6.4 0.00 0.18 0.00 87 1016.0
20260507134550 17 0 0.0 1.6 0.00 0.18 0.00 87 1016.1
20260507133048 17 0 0.0 3.2 0.00 0.18 0.00 87 1016.2
20260507131603 17 0 0.0 1.6 0.00 0.18 0.00 86 1016.3
20260507130051 17 0 0.0 1.6 0.00 0.18 0.00 87 1016.3
20260507124552 17 0 0.0 3.2 0.00 0.18 0.00 87 1016.3
20260507123057 17 0 0.0 3.2 0.00 0.18 0.00 87 1016.0
20260507121550 17 0 0.0 4.8 0.00 0.18 0.00 87 1015.3
20260507120048 17 0 0.0 0.0 0.00 0.18 0.00 86 1014.6
20260507114551 17 0 0.0 3.2 0.00 0.18 0.00 86 1014.7
20260507113044 17 0 0.0 1.6 0.00 0.18 0.00 86 1014.5
20260507111548 18 0 0.0 0.0 0.00 0.18 0.00 88 1014.5
20260507110043 18 0 0.0 1.6 0.00 0.18 0.00 88 1014.1
20260507104550 18 0 0.0 0.0 0.00 0.18 0.00 87 1013.9
20260507103046 18 0 0.0 1.6 0.00 0.18 0.00 87 1013.8
20260507101553 18 0 0.0 3.2 0.00 0.18 0.00 87 1013.7
20260507100051 18 0 0.0 1.6 0.00 0.18 0.00 87 1013.5
20260507094546 18 0 0.0 3.2 0.00 0.18 0.00 87 1013.5
20260507093056 18 0 0.0 3.2 0.00 0.18 0.00 87 1013.0
20260507091550 18 0 0.0 4.8 0.00 0.18 0.00 87 1013.1
20260507090045 18 0 0.0 3.2 0.00 0.18 0.00 87 1013.1
20260507084551 18 0 0.0 1.6 0.00 0.18 0.00 87 1013.1
20260507083049 18 0 0.0 3.2 0.00 0.18 0.00 87 1012.9
20260507081544 18 0 0.0 1.6 0.00 0.18 0.00 87 1013.1
20260507080113 18 0 0.0 3.2 0.00 0.18 0.00 87 1013.4
20260507074545 18 0 0.0 3.2 0.00 0.18 0.00 86 1013.2
20260507073058 18 0 0.0 0.0 0.00 0.18 0.00 86 1013.6
20260507071559 18 0 0.0 3.2 0.00 0.18 0.00 85 1013.3
20260507070048 18 0 0.0 3.2 0.00 0.18 0.00 85 1013.7
20260507064551 18 0 0.0 0.0 0.00 0.18 0.00 85 1013.6
20260507063046 18 0 0.0 3.2 0.00 0.18 0.00 85 1013.8
20260507061552 18 0 0.0 3.2 0.00 0.18 0.00 84 1013.6
20260507060054 19 0 0.0 6.4 0.00 0.18 0.00 84 1013.3
20260507054552 19 0 0.0 4.8 0.00 0.18 0.00 84 1013.4
20260507053049 19 0 0.0 4.8 0.00 0.18 0.00 83 1013.5
20260507051546 19 0 0.0 3.2 0.00 0.18 0.00 82 1013.4
20260507050044 20 0 0.0 3.2 0.00 0.18 0.00 84 1013.5
20260507044542 20 0 0.0 6.4 0.00 0.18 0.18 83 1013.4
20260507043047 20 0 0.0 0.0 0.00 0.18 0.18 84 1013.1
20260507041545 20 0 0.0 3.2 0.00 0.18 0.18 84 1013.0
20260507040057 20 0 0.0 0.0 0.00 0.18 0.18 84 1013.1
20260507034553 20 0 0.0 0.0 0.00 0.18 0.18 83 1013.2
20260507033045 21 0 0.0 0.0 0.00 0.18 0.18 83 1013.2
20260507031541 21 0 0.0 0.0 0.00 0.18 0.18 84 1012.8
20260507030048 21 0 0.0 3.2 0.00 0.18 0.18 83 1012.5
20260507024544 21 0 0.0 4.8 0.00 0.18 0.18 83 1012.0
20260507023044 21 0 0.0 4.8 0.00 0.18 0.18 83 1011.7
20260507021546 21 0 0.0 3.2 0.00 0.18 0.18 83 1011.3
20260507020100 21 0 0.0 0.0 0.00 0.18 0.18 85 1010.9
20260507014603 21 0 0.0 0.0 0.00 0.18 0.18 85 1010.7
20260507013053 21 0 0.0 0.0 0.00 0.18 0.18 85 1010.4
20260507011602 22 0 0.0 3.2 0.00 0.18 0.18 84 1010.2
20260507010050 22 0 0.0 3.2 0.00 0.18 0.18 84 1009.9
20260507004551 22 0 0.0 0.0 0.00 0.18 0.18 84 1009.6
20260507003047 23 0 0.0 9.7 0.00 0.18 0.18 84 1009.5
20260507001612 23 0 0.0 9.7 0.00 0.18 0.18 84 1009.3
20260507000100 24 0 0.0 3.2 0.00 0.18 0.18 85 1009.0
20260506234546 25 0 0.0 12.9 0.00 0.18 0.18 83 1009.1
20260506233052 27 0 0.0 0.0 0.00 0.18 0.18 81 1008.7
20260506231548 28 0 0.0 0.0 0.00 0.18 0.18 87 1008.3
20260506230052 27 0 0.0 0.0 0.00 0.18 0.18 88 1008.3
20260506224546 27 0 0.0 0.0 0.00 0.18 0.18 88 1008.4
20260506223041 28 0 0.0 0.0 0.00 0.18 0.18 86 1008.2
20260506221544 28 0 0.0 0.0 0.00 0.18 0.18 85 1008.0
20260506220057 29 0 0.0 0.0 0.00 0.18 0.18 85 1008.2
20260506214550 29 0 0.0 0.0 0.00 0.18 0.18 83 1008.1
20260506213047 29 0 0.0 0.0 0.00 0.18 0.18 81 1008.1
20260506211547 29 0 0.0 0.0 0.00 0.18 0.18 83 1008.3